Weather History for White Mountain, AK

Change the Weather History Date:

Friday, January 11, 2013

  Actual Average (PAKK) Record (PAKK)
Temperature  
Mean Temperature 26 °F -  
Max Temperature 28 °F 7 °F 39 °F (2011)
Min Temperature 23 °F 0 °F -32 °F (2008)
Degree Days  
Heating Degree Days 40    
Moisture  
Dew Point 26 °F    
Average Humidity 97    
Maximum Humidity 100    
Minimum Humidity 89    
Precipitation  
Precipitation 0.00 in - - ()
Sea Level Pressure  
Sea Level Pressure 29.63 in    
Wind  
Wind Speed 19 mph (SSE)    
Max Wind Speed 26 mph    
Max Gust Speed 36 mph    
Visibility 4 miles    
Events Snow    
Averages and records for this station are not official NWS values.
T = Trace of Precipitation, MM = Missing Value Source: NWS Daily Summary

Daily Weather History Graph

Daily Weather History Graph

Search for Another Location

Airport:

Trip Planner

Search our weather history database for the weather conditions in past years. The results will help you decide how hot, cold, wet, or windy it might be!

Date:

Astronomy

Jan. 11, 2013 Rise Set
Actual Time 11:35 AM AKST 4:28 PM AKST
Civil Twilight 10:22 AM AKST 5:41 PM AKST
Nautical Twilight 9:15 AM AKST 6:48 PM AKST
Astronomical Twilight 8:16 AM AKST 7:48 PM AKST
Moon 10:48 AM AKST (1/11) 5:37 PM AKST (1/11)
Length of Visible Light 7h 18m
Length of Day
4h 52m
New Moon, 0% of the Moon is Illuminated
Jan 11
New Moon
Jan 18
First Quarter
Jan 26
Full
Feb 3
Last Quarter
Feb 9
New

Hourly Weather History & Observations

Time (AKST) Temp. Windchill Dew Point Humidity Pressure Visibility Wind Dir Wind Speed Gust Speed Precip Events Conditions
12:56 AM 26.6 °F 15.2 °F 24.8 °F 93% 29.52 in 6.0 mi East 13.8 mph - 0.00 in Snow Light Snow
12:58 AM 27.0 °F 14.7 °F 24.1 °F 89% 29.56 in 6.0 mi East 16.1 mph - 0.00 in Snow Light Snow
1:13 AM 26.6 °F 12.4 °F 24.8 °F 93% 29.53 in 1.8 mi ESE 21.9 mph 27.6 mph 0.00 in Snow Light Snow
1:21 AM 26.6 °F 12.0 °F 26.6 °F 100% 29.53 in 1.2 mi East 23.0 mph 32.2 mph 0.00 in Snow Light Snow
1:51 AM 26.6 °F 12.7 °F 26.6 °F 100% 29.52 in 1.0 mi ESE 20.7 mph 27.6 mph 0.00 in Snow Light Snow
1:58 AM 27.0 °F 13.5 °F 26.1 °F 96% 29.56 in 1.0 mi ESE 19.6 mph 32.2 mph 0.00 in Snow Light Snow
2:08 AM 26.6 °F 12.7 °F 26.6 °F 100% 29.51 in 1.2 mi ESE 20.7 mph 31.1 mph 0.00 in Snow Light Snow
2:19 AM 26.6 °F 12.7 °F 26.6 °F 100% 29.51 in 1.0 mi ESE 20.7 mph 31.1 mph 0.00 in Snow Light Snow
2:30 AM 26.6 °F 12.7 °F 26.6 °F 100% 29.51 in 1.2 mi ESE 20.7 mph 33.4 mph 0.00 in Snow Light Snow
3:32 AM 26.6 °F 12.0 °F 26.6 °F 100% 29.51 in 2.0 mi ESE 23.0 mph 31.1 mph 0.00 in Snow Light Snow
3:39 AM 26.6 °F 12.0 °F 26.6 °F 100% 29.50 in 2.0 mi SE 23.0 mph 31.1 mph 0.00 in Snow Light Snow
3:46 AM 26.6 °F 12.0 °F 26.6 °F 100% 29.50 in 1.8 mi ESE 23.0 mph 34.5 mph 0.00 in Snow Light Snow
3:53 AM 26.6 °F 12.0 °F 26.6 °F 100% 29.50 in 1.5 mi ESE 23.0 mph 32.2 mph 0.00 in Snow Light Snow
3:58 AM 26.1 °F 11.6 °F 26.1 °F 100% 29.53 in 1.2 mi SE 21.9 mph 33.4 mph 0.00 in Snow Light Snow
4:21 AM 26.6 °F 12.7 °F 24.8 °F 93% 29.49 in 1.2 mi SE 20.7 mph 27.6 mph 0.00 in Snow Light Snow
4:28 AM 26.6 °F 12.0 °F 26.6 °F 100% 29.49 in 1.0 mi SE 23.0 mph 29.9 mph 0.00 in Snow Light Snow
4:39 AM 26.6 °F 12.7 °F 26.6 °F 100% 29.49 in 1.2 mi SE 20.7 mph 34.5 mph 0.00 in Snow Light Snow
4:58 AM 26.1 °F 11.3 °F 26.1 °F 100% 29.52 in 2.0 mi ESE 23.0 mph 31.1 mph 0.00 in Snow Light Snow
5:03 AM 26.6 °F 12.4 °F 26.6 °F 100% 29.49 in 4.0 mi ESE 21.9 mph 31.1 mph 0.00 in Snow Light Snow
5:09 AM 26.6 °F 12.4 °F 24.8 °F 93% 29.49 in 6.0 mi SE 21.9 mph 29.9 mph 0.00 in Snow Light Snow
5:58 AM 26.1 °F 11.6 °F 26.1 °F 100% 29.52 in 6.0 mi SE 21.9 mph 33.4 mph 0.00 in   Overcast
6:08 AM 26.6 °F 12.0 °F 26.6 °F 100% 29.49 in 6.0 mi SE 23.0 mph 33.4 mph N/A   Overcast
6:20 AM 26.6 °F 12.7 °F 26.6 °F 100% 29.49 in 3.0 mi SE 20.7 mph 31.1 mph 0.00 in   Overcast
6:28 AM 26.6 °F 12.4 °F 26.6 °F 100% 29.49 in 2.5 mi SE 21.9 mph 32.2 mph 0.00 in Snow Light Snow
6:33 AM 26.6 °F 11.4 °F 26.6 °F 100% 29.49 in 4.0 mi SE 25.3 mph 32.2 mph 0.00 in Snow Light Snow
6:57 AM 27.0 °F 12.8 °F 27.0 °F 100% 29.52 in 8.0 mi SE 21.9 mph 32.2 mph 0.00 in   Overcast
7:35 AM 28.4 °F 14.7 °F 26.6 °F 93% 29.49 in 2.0 mi SSE 21.9 mph 28.8 mph 0.00 in Snow Light Snow
7:44 AM 28.4 °F 15.1 °F 26.6 °F 93% 29.49 in 7.0 mi SSE 20.7 mph 28.8 mph 0.00 in Snow Light Snow
7:58 AM 28.0 °F 14.9 °F 27.0 °F 96% 29.53 in 8.0 mi SSE 19.6 mph 25.3 mph 0.00 in Snow Light Snow
8:16 AM 28.4 °F 16.2 °F 28.4 °F 100% 29.50 in 7.0 mi SSE 17.3 mph 28.8 mph 0.00 in   Overcast
8:31 AM 28.4 °F 15.4 °F 28.4 °F 100% 29.51 in 3.0 mi SSE 19.6 mph 26.5 mph 0.00 in Snow Light Snow
8:40 AM 28.4 °F 15.1 °F 28.4 °F 100% 29.51 in 2.5 mi South 20.7 mph 26.5 mph 0.00 in Snow Light Snow
8:47 AM 28.4 °F 14.7 °F 28.4 °F 100% 29.51 in 1.8 mi South 21.9 mph 26.5 mph 0.00 in   Overcast
8:58 AM 28.0 °F 14.3 °F 28.0 °F 100% 29.55 in 2.5 mi SSE 21.9 mph 28.8 mph 0.00 in   Overcast
9:03 AM 28.4 °F 16.2 °F 28.4 °F 100% 29.52 in 3.0 mi SSE 17.3 mph 28.8 mph 0.00 in   Overcast
9:10 AM 28.4 °F 15.8 °F 28.4 °F 100% 29.52 in 2.0 mi SSE 18.4 mph 26.5 mph 0.00 in Snow Light Snow
9:22 AM 28.4 °F 14.7 °F 28.4 °F 100% 29.53 in 3.0 mi South 21.9 mph 26.5 mph 0.00 in Snow Light Snow
9:33 AM 28.4 °F 15.1 °F 28.4 °F 100% 29.53 in 3.0 mi South 20.7 mph 27.6 mph 0.00 in Snow Light Snow
9:40 AM 28.4 °F 15.4 °F 28.4 °F 100% 29.53 in 2.5 mi South 19.6 mph 27.6 mph 0.00 in Snow Light Snow
9:58 AM 28.0 °F 14.9 °F 28.0 °F 100% 29.57 in 2.0 mi South 19.6 mph 27.6 mph 0.00 in Snow Light Snow
10:20 AM 28.4 °F 14.1 °F 28.4 °F 100% 29.55 in 4.0 mi South 24.2 mph 32.2 mph 0.00 in Snow Light Snow
10:39 AM 28.4 °F 14.4 °F 28.4 °F 100% 29.56 in 8.0 mi South 23.0 mph 32.2 mph 0.00 in Snow Light Snow
10:58 AM 28.0 °F 14.6 °F 27.0 °F 96% 29.61 in 6.0 mi South 20.7 mph 31.1 mph 0.00 in Snow Light Snow
11:25 AM 28.4 °F 15.1 °F 26.6 °F 93% 29.59 in 2.5 mi South 20.7 mph 31.1 mph 0.00 in Snow Light Snow
11:32 AM 28.4 °F 14.1 °F 26.6 °F 93% 29.60 in 2.0 mi South 24.2 mph 32.2 mph 0.00 in Snow Light Snow
11:36 AM 28.4 °F 14.7 °F 26.6 °F 93% 29.60 in 2.0 mi South 21.9 mph 32.2 mph 0.00 in Snow Light Snow
11:42 AM 28.4 °F 14.7 °F 26.6 °F 93% 29.61 in 4.0 mi South 21.9 mph 29.9 mph 0.00 in   Overcast
11:58 AM 27.0 °F 12.5 °F 27.0 °F 100% 29.65 in 6.0 mi South 23.0 mph 34.5 mph 0.00 in   Overcast
12:19 PM 26.6 °F 12.4 °F 26.6 °F 100% 29.62 in 5.0 mi South 21.9 mph 31.1 mph 0.00 in Snow Light Snow
12:58 PM 28.0 °F 14.9 °F 27.0 °F 96% 29.68 in 2.5 mi South 19.6 mph 32.2 mph 0.00 in Snow Light Snow
1:07 PM 28.4 °F 15.1 °F 26.6 °F 93% 29.65 in 4.0 mi South 20.7 mph 31.1 mph 0.00 in   Overcast
1:25 PM 28.4 °F 14.7 °F 26.6 °F 93% 29.66 in 5.0 mi South 21.9 mph 29.9 mph 0.00 in   Overcast
1:58 PM 28.0 °F 13.9 °F 26.1 °F 92% 29.70 in 6.0 mi South 23.0 mph 31.1 mph 0.00 in   Overcast
2:14 PM 28.4 °F 14.7 °F 26.6 °F 93% 29.67 in 3.0 mi South 21.9 mph 27.6 mph 0.00 in   Overcast
2:26 PM 28.4 °F 13.5 °F 26.6 °F 93% 29.68 in 1.8 mi South 26.5 mph 32.2 mph 0.00 in Snow Light Snow
2:30 PM 28.4 °F 14.7 °F 26.6 °F 93% 29.69 in 1.0 mi SSW 21.9 mph 32.2 mph 0.00 in Snow Light Snow
2:37 PM 26.6 °F 14.7 °F 26.6 °F 100% 29.70 in 1.2 mi SSW 15.0 mph 29.9 mph 0.00 in Snow Light Snow
2:45 PM 26.6 °F 14.3 °F 26.6 °F 100% 29.70 in 3.0 mi SSW 16.1 mph 23.0 mph 0.00 in Snow Light Snow
2:58 PM 27.0 °F 14.3 °F 26.1 °F 96% 29.75 in 3.0 mi SSW 17.3 mph 23.0 mph 0.00 in   Overcast
3:07 PM 26.6 °F 13.1 °F 24.8 °F 93% 29.71 in 5.0 mi SSW 19.6 mph 25.3 mph 0.00 in   Overcast
3:24 PM 26.6 °F 12.0 °F 24.8 °F 93% 29.71 in 6.0 mi SSW 23.0 mph 35.7 mph 0.00 in   Overcast
3:58 PM 25.0 °F 12.2 °F 23.0 °F 92% 29.77 in 7.0 mi SSW 16.1 mph 31.1 mph 0.00 in   Overcast
4:58 PM 24.1 °F 11.5 °F 21.9 °F 91% 29.79 in 8.0 mi SSW 15.0 mph 21.9 mph N/A   Overcast
5:58 PM 23.0 °F 11.1 °F 21.0 °F 92% 29.82 in 8.0 mi South 12.7 mph - N/A   Overcast
6:10 PM 23.0 °F 11.7 °F 21.2 °F 93% 29.79 in 8.0 mi South 11.5 mph - N/A   Overcast
6:58 PM 25.0 °F 14.2 °F 23.0 °F 92% 29.83 in 9.0 mi South 11.5 mph - N/A   Overcast
7:10 PM 24.8 °F 12.9 °F 24.8 °F 100% 29.80 in 9.0 mi South 13.8 mph 20.7 mph N/A   Overcast
7:46 PM 26.6 °F 16.2 °F 24.8 °F 93% 29.80 in 2.0 mi SSE 11.5 mph - 0.00 in Snow Light Snow
7:50 PM 26.6 °F 16.8 °F 24.8 °F 93% 29.80 in 1.8 mi SSE 10.4 mph - 0.00 in Snow Light Snow
7:58 PM 26.1 °F 14.0 °F 26.1 °F 100% 29.83 in 2.5 mi SSE 15.0 mph 20.7 mph 0.00 in Snow Light Snow
8:17 PM 26.6 °F 13.8 °F 26.6 °F 100% 29.79 in 3.0 mi South 17.3 mph 24.2 mph 0.00 in Snow Light Snow
8:58 PM 27.0 °F 13.5 °F 26.1 °F 96% 29.84 in 2.5 mi South 19.6 mph 28.8 mph 0.00 in Snow Light Snow
9:05 PM 26.6 °F 13.4 °F 26.6 °F 100% 29.80 in 4.0 mi South 18.4 mph 27.6 mph 0.00 in Snow Light Snow
9:18 PM 26.6 °F 14.3 °F 26.6 °F 100% 29.81 in 2.0 mi South 16.1 mph 26.5 mph 0.00 in Snow Light Snow
9:36 PM 26.6 °F 14.7 °F 26.6 °F 100% 29.81 in 4.0 mi South 15.0 mph 25.3 mph 0.00 in Snow Light Snow
9:42 PM 26.6 °F 13.8 °F 26.6 °F 100% 29.81 in 6.0 mi South 17.3 mph 25.3 mph 0.00 in Snow Light Snow
9:58 PM 27.0 °F 15.6 °F 26.1 °F 96% 29.86 in 4.0 mi South 13.8 mph 23.0 mph 0.00 in Snow Light Snow
10:03 PM 26.6 °F 15.2 °F 26.6 °F 100% 29.82 in 4.0 mi South 13.8 mph - 0.00 in Snow Light Snow
10:07 PM 26.6 °F 15.2 °F 26.6 °F 100% 29.82 in 4.0 mi South 13.8 mph - 0.00 in Snow Light Snow
10:28 PM 26.6 °F 14.7 °F 26.6 °F 100% 29.82 in 6.0 mi South 15.0 mph 20.7 mph 0.00 in   Overcast
10:47 PM 26.6 °F 15.7 °F 26.6 °F 100% 29.81 in 7.0 mi South 12.7 mph - 0.00 in   Overcast
10:58 PM 26.1 °F 15.0 °F 26.1 °F 100% 29.85 in 7.0 mi South 12.7 mph - 0.00 in   Overcast
11:32 PM 26.6 °F 16.2 °F 24.8 °F 93% 29.82 in 6.0 mi South 11.5 mph - N/A   Overcast
11:58 PM 25.0 °F 13.6 °F 25.0 °F 100% 29.86 in 7.0 mi SSE 12.7 mph - N/A   Overcast